Location: Chimay
(50.0486°N, 4.3171°E)
Time: 05:39:51
(UTC+00:00)

Cosmos 44 - Pass Details

Date: 08 August 2020
Orbit: 583 x 779 km, 65.1° (Epoch: 19 September)

Event Time Altitude Azimuth Distance (km) Brightness Sun altitude
Rises 21:13:00 0° 322° (NW) 2,994 8.5 -15.8°
Reaches altitude 10° 21:15:25 10° 330° (NNW) 2,112 7.1 -16.1°
Maximum altitude 21:19:54 38° 39° (NE) 1,075 4.4 -16.5°
Enters shadow 21:23:07 18° 98° (E) 1,713 4.9 -16.8°
